Pullman, WA

1:47 PM PST on November 17, 2017 (GMT -0800)
Pullman-Moscow Regional

Weather History for KPUW - March, 2013

Change the Weather History Date:

Friday, March 1, 2013

  Actual Average Record
Temperature  
Mean Temperature 46 °F 38 °F  
Max Temperature 54 °F 46 °F 66 °F (1968)
Min Temperature 37 °F 29 °F 10 °F (1971)
Degree Days  
Heating Degree Days 19 27  
Month to date heating degree days 19 27  
Since 1 July heating degree days 4445 4730  
Cooling Degree Days 0 0  
Month to date cooling degree days 0 0  
Year to date cooling degree days 0 0  
Moisture  
Dew Point 39 °F    
Average Humidity 83    
Maximum Humidity 100    
Minimum Humidity 66    
Precipitation  
Precipitation 0.02 in 0.06 in 0.73 in (1961)
Month to date precipitation 0.02 0.06  
Year to date precipitation 2.36 3.40  
Sea Level Pressure  
Sea Level Pressure 30.41 in    
Wind  
Wind Speed 6 mph (ESE)    
Max Wind Speed 15 mph    
Max Gust Speed 21 mph    
Visibility 10 miles    
Events Rain    
T = Trace of Precipitation, MM = Missing Value Source: NWS Daily Summary

Daily Weather History Graph

Daily Weather History Graph

Search for Another Location

Airport or City:

Trip Planner

Search our weather history database for the weather conditions in past years. The results will help you decide how hot, cold, wet, or windy it might be!

Date:

Astronomy

Mar. 01, 2013 Rise Set
Actual Time 6:27 AM PST 5:34 PM PST
Civil Twilight 5:57 AM PST 6:05 PM PST
Nautical Twilight 5:22 AM PST 6:40 PM PST
Astronomical Twilight 4:46 AM PST 7:15 PM PST
Moon 10:34 PM PST (3/1) 7:58 AM PST (3/1)
Length of Visible Light 12h 08m
Length of Day
11h 07m
Waning Gibbous, 82% of the Moon is Illuminated
Mar 1
Waning Gibbous
Mar 4
Last Quarter
Mar 11
New
Mar 19
First Quarter
Mar 27
Full

Hourly Weather History & Observations

Time (PST) Temp. Windchill Dew Point Humidity Pressure Visibility Wind Dir Wind Speed Gust Speed Precip Events Conditions
12:15 AM 37.4 °F 31.4 °F 35.6 °F 93% 30.38 in 10.0 mi East 8.1 mph - N/A   Overcast
12:39 AM 37.4 °F 32.1 °F 35.6 °F 93% 30.39 in 10.0 mi East 6.9 mph - N/A   Overcast
1:53 AM 39.0 °F 34.8 °F 37.0 °F 93% 30.47 in 4.0 mi ENE 5.8 mph - 0.01 in Rain Light Rain
2:07 AM 39.2 °F 35.9 °F 37.4 °F 93% 30.41 in 4.0 mi ENE 4.6 mph - 0.01 in Rain Light Rain
2:53 AM 39.9 °F 35.1 °F 37.9 °F 93% 30.45 in 10.0 mi ESE 6.9 mph - 0.01 in   Overcast
3:27 AM 41.0 °F 37.1 °F 39.2 °F 93% 30.38 in 10.0 mi SE 5.8 mph - N/A   Scattered Clouds
4:53 AM 37.9 °F 35.5 °F 37.0 °F 97% 30.45 in 10.0 mi NE 3.5 mph - N/A   Overcast
5:12 AM 37.4 °F 31.4 °F 35.6 °F 93% 30.40 in 10.0 mi NE 8.1 mph - N/A   Overcast
5:53 AM 39.0 °F 32.8 °F 37.0 °F 93% 30.44 in 10.0 mi ESE 9.2 mph - N/A   Overcast
6:53 AM 41.0 °F 36.4 °F 37.9 °F 89% 30.44 in 10.0 mi ESE 6.9 mph - N/A   Overcast
7:53 AM 42.1 °F 36.6 °F 37.9 °F 85% 30.45 in 10.0 mi ESE 9.2 mph - N/A   Overcast
8:53 AM 43.0 °F 38.2 °F 39.0 °F 86% 30.45 in 10.0 mi ESE 8.1 mph - N/A   Overcast
9:53 AM 48.9 °F - 41.0 °F 74% 30.44 in 10.0 mi South 11.5 mph - N/A   Overcast
10:53 AM 46.9 °F - 43.0 °F 86% 30.45 in 10.0 mi SE 9.2 mph - 0.00 in   Overcast
11:53 AM 48.9 °F - 42.1 °F 77% 30.44 in 10.0 mi South 4.6 mph - N/A   Overcast
1:53 PM 53.1 °F - 42.1 °F 66% 30.41 in 10.0 mi SSW 10.4 mph - N/A   Overcast
2:53 PM 53.1 °F - 42.1 °F 66% 30.40 in 10.0 mi SW 9.2 mph - N/A   Partly Cloudy
3:53 PM 53.1 °F - 42.1 °F 66% 30.40 in 10.0 mi WSW 5.8 mph - N/A   Mostly Cloudy
4:53 PM 51.1 °F - 43.0 °F 74% 30.40 in 10.0 mi SSE 3.5 mph - N/A   Overcast
5:53 PM 48.9 °F - 41.0 °F 74% 30.39 in 10.0 mi Calm Calm - N/A   Clear
6:53 PM 44.1 °F 42.5 °F 39.9 °F 85% 30.39 in 10.0 mi ENE 3.5 mph - N/A   Clear
7:53 PM 44.1 °F - 39.9 °F 85% 30.39 in 10.0 mi Calm Calm - N/A   Clear
8:53 PM 43.0 °F 41.3 °F 39.9 °F 89% 30.39 in 10.0 mi ENE 3.5 mph - N/A   Clear
9:53 PM 41.0 °F 38.0 °F 37.9 °F 89% 30.37 in 10.0 mi East 4.6 mph - N/A   Clear
10:53 PM 42.1 °F 38.4 °F 39.0 °F 89% 30.36 in 10.0 mi ESE 5.8 mph - N/A   Partly Cloudy
11:53 PM 44.1 °F 37.7 °F 37.9 °F 79% 30.33 in 10.0 mi ESE 12.7 mph - N/A   Clear